Wind_Speed
18 22 21 18 16 14 14 14 15 16 17 16 16 16 17 18 18 19 19 19 18 16 15 15 15 16 16 16 16 17 15 14 13 12 12 13 12 12 13 13 13 12 10
30 26 24 21 18 16 15 15 16 17 18 18 17 17 18 19 19 18 18 18 16 15 15 15 14 14 14 15 15 14 14 13 12 11 10 10 9 11 11 11 11 12 11
32 31 26 22 19 17 17 16 17 17 18 18 19 19 19 18 18 18 17 16 16 15 15 15 14 13 13 13 12 10 10 9 10 10 8 8 9 9 10 9 11 10 9
32 30 27 23 19 18 17 16 17 18 18 19 19 18 18 17 17 17 15 15 14 14 14 14 12 12 11 9 8 7 6 5 4 3 4 4 4 6 8 9 9 8 8
30 30 27 24 20 19 17 16 16 17 17 17 17 17 16 16 16 15 14 13 12 12 13 12 11 10 8 7 6 5 5 6 6 4 4 1 2 4 6 8 8 8 8
30 29 27 24 21 19 18 17 15 16 16 16 16 15 14 14 14 13 12 11 10 10 10 9 8 7 6 4 4 3 3 3 4 5 3 3 3 5 6 5 7 6 7
32 29 27 24 21 19 18 16 16 15 15 14 14 14 14 14 13 12 10 9 8 7 7 5 5 3 2 1 1 0 0 1 3 7 4 6 3 3 7 4 4 4 5
30 29 26 23 21 19 18 17 16 15 14 14 13 13 13 12 12 11 9 8 6 5 4 2 1 2 1 2 2 3 4 4 4 4 2 7 6 4 5 5 4 4 5
30 29 27 25 22 20 18 17 16 15 14 13 13 12 12 11 10 9 8 7 5 3 2 2 3 4 4 4 5 5 6 7 8 7 4 8 10 8 8 7 6 5 6
27 28 27 26 24 21 19 17 16 16 15 14 13 12 12 11 10 8 7 6 4 3 3 4 5 5 6 7 7 8 8 9 10 9 10 11 13 14 12 10 9 8 8
19 25 27 27 26 23 21 19 18 17 15 14 13 12 12 11 10 9 7 6 5 4 5 7 8 9 9 11 11 11 12 12 12 13 14 14 13 15 16 14 13 11 11
22 23 27 29 28 26 24 22 21 19 18 17 15 14 13 12 10 9 8 7 7 8 9 10 12 12 13 13 14 14 14 14 14 15 15 17 16 16 19 20 16 15 13
37 30 33 33 30 29 27 25 22 21 20 19 17 15 13 12 12 11 10 9 10 11 13 13 14 15 16 17 18 18 17 17 16 14 15 17 17 20 20 22 19 17 16
31 35 34 34 31 30 27 27 25 24 22 20 19 16 15 14 14 14 13 11 12 15 16 17 17 18 19 19 20 20 21 19 17 17 16 15 16 18 21 21 22 21 17
31 36 35 35 33 30 29 27 25 23 22 19 18 16 16 16 16 15 13 12 13 16 17 18 19 20 20 22 23 24 23 22 19 20 20 16 17 16 15 16 20 20 18
33 36 34 36 34 30 30 28 26 22 19 18 17 16 16 16 16 16 16 14 14 12 13 16 17 19 20 19 19 20 18 15 19 20 18 16 19 18 16 20 20 20 17
33 34 34 35 35 32 31 28 26 22 19 18 16 15 15 17 18 17 17 17 14 11 9 10 10 11 11 11 12 12 14 14 13 13 12 18 23 13 15 18 19 23 20
33 35 34 34 35 32 31 27 24 22 20 17 17 18 19 21 22 19 16 15 12 10 6 3 4 3 2 4 7 7 7 9 11 15 18 21 16 17 16 19 18 19 23
36 34 33 33 31 30 29 27 23 22 20 18 18 18 20 22 23 18 16 13 13 11 10 7 5 4 4 7 10 12 13 14 16 17 19 17 16 18 18 18 21 22 16
29 32 31 32 32 28 26 22 16 12 11 10 10 10 10 9 12 16 7 8 4 4 3 5 5 5 6 10 9 10 14 14 14 16 16 13 14 17 22 23 19 17 19
24 27 31 30 27 23 23 23 20 10 10 9 8 7 7 7 9 4 3 6 6 6 7 8 8 10 11 14 8 13 10 9 9 9 16 16 20 22 18 22 20 16 18
25 24 24 26 26 25 25 24 16 17 15 17 16 15 13 13 10 8 8 8 9 9 10 9 9 9 8 12 7 3 4 6 4 26 18 23 16 19 21 21 15 14 15
23 22 22 22 22 21 20 17 19 26 23 20 18 16 13 11 12 8 8 8 11 12 13 13 12 11 8 8 8 2 2 2 5 8 24 20 24 21 19 12 11 13 13
25 24 22 20 19 17 18 21 23 27 22 17 19 17 15 12 11 12 13 15 15 14 15 16 15 14 11 12 5 8 5 9 2 4 12 24 27 26 23 18 15 17 15
28 28 24 21 19 19 20 23 23 25 25 24 24 23 20 19 18 17 17 16 16 16 16 15 14 13 13 12 11 9 10 10 6 5 5 15 29 30 23 19 18 15 13
25 26 26 25 22 22 23 23 26 29 29 27 24 24 23 20 19 17 16 16 15 15 15 14 12 12 12 12 12 11 13 6 10 5 3 11 14 24 31 20 17 15 12
Wind_Direction
164 170 163 155 143 135 128 122 122 124 123 121 121 122 123 121 120 117 115 112 109 108 105 100 99 97 98 96 95 94 94 92 90 86 86 104 102 98 102 99 103 93 97
164 170 166 159 150 143 136 129 128 130 131 131 130 126 122 119 119 118 115 113 112 108 103 98 98 100 100 97 95 93 92 85 84 86 91 103 106 108 108 104 103 97 99
165 167 166 161 153 148 142 135 133 131 132 133 131 128 124 121 119 116 115 113 111 109 105 100 98 100 100 97 93 88 87 90 67 61 72 91 104 113 117 114 112 113 107
163 165 164 161 156 152 146 140 136 135 135 134 132 130 125 123 122 119 116 114 113 111 109 109 110 109 105 98 88 77 63 51 29 24 22 71 106 119 116 117 121 120 120
162 166 165 164 160 157 151 145 142 140 138 136 134 132 130 129 126 124 122 119 115 113 113 112 113 111 109 105 96 78 48 26 18 345 279 269 156 155 141 137 125 128 126
167 169 168 166 164 162 156 150 146 145 144 142 139 137 135 132 130 128 124 122 118 116 116 118 115 113 117 115 106 83 55 50 355 335 259 216 192 176 169 134 149 137 133
168 171 170 170 167 166 161 156 153 152 152 150 146 143 142 139 137 133 131 130 129 128 125 125 124 133 135 129 134 113 62 350 344 345 243 225 217 195 193 178 164 158 148
168 173 171 173 172 172 167 165 163 161 161 160 158 154 151 149 148 148 149 147 144 143 143 149 195 227 225 257 267 294 304 298 316 326 237 230 244 235 206 214 211 197 192
172 175 175 176 178 180 176 173 173 171 170 170 170 166 165 164 163 165 167 167 167 177 192 243 257 270 276 275 280 284 289 295 301 302 276 247 248 253 239 231 229 227 219
176 178 179 179 181 183 185 183 185 184 184 180 181 179 179 178 180 183 188 192 193 208 235 264 278 289 291 293 293 291 290 285 287 283 278 276 256 248 248 241 234 234 231
179 183 185 183 185 186 189 190 193 196 196 195 192 193 193 195 196 201 209 215 225 246 267 279 282 288 295 293 291 296 297 293 290 291 277 273 276 250 249 251 246 234 230
184 191 191 189 191 189 192 196 199 202 205 207 206 203 206 209 214 221 232 238 249 261 274 284 287 288 286 287 293 294 296 303 300 292 288 279 272 266 252 250 253 246 237
190 189 193 194 195 194 195 198 203 208 212 213 217 217 219 222 227 229 235 246 263 271 280 288 292 289 289 290 291 292 294 297 301 306 287 284 282 268 265 261 260 255 245
193 199 197 196 198 200 202 203 205 210 215 219 222 224 228 233 236 238 241 258 276 280 283 289 294 296 295 291 289 289 290 292 297 301 303 296 287 281 270 264 257 263 254
195 203 203 200 200 204 208 211 212 215 220 224 229 232 236 239 242 241 245 265 284 285 279 285 289 293 298 303 297 295 288 283 286 289 295 291 299 293 269 265 255 254 261
201 204 205 205 203 205 212 217 216 219 224 226 230 235 239 243 248 248 247 258 269 278 274 280 289 296 299 300 297 295 300 297 286 287 285 285 292 288 264 256 248 241 250
203 205 206 210 207 206 214 218 219 222 227 228 230 235 239 247 252 256 261 269 281 274 268 280 293 300 301 301 300 299 292 291 293 291 291 304 299 282 279 259 249 241 237
198 204 205 208 211 207 215 218 224 231 232 239 244 246 248 253 255 258 267 280 291 289 302 338 13 14 347 301 305 309 298 292 299 292 303 298 294 287 272 259 269 255 277
201 202 205 206 211 211 217 225 228 241 244 247 255 253 255 260 260 263 266 288 293 287 284 299 346 24 5 339 325 312 302 298 295 293 299 297 291 291 287 276 286 277 257
194 196 203 206 211 213 217 226 222 204 202 214 224 233 243 250 249 243 258 278 272 259 47 19 2 2 24 355 334 312 304 297 287 289 301 292 296 308 299 274 291 279 289
173 183 187 193 202 205 199 199 193 177 132 129 130 145 167 182 193 191 127 103 75 48 41 46 32 20 27 16 20 337 309 304 296 321 335 308 297 308 299 284 286 283 304
144 151 170 187 192 191 198 204 200 151 126 117 112 108 111 107 114 121 95 69 50 32 33 39 32 29 22 23 20 345 343 324 3 328 327 322 318 317 302 293 282 276 274
148 150 153 159 165 174 191 180 146 132 125 116 114 111 104 105 98 89 81 70 69 64 56 47 45 38 24 19 19 15 329 291 318 314 324 328 323 320 308 300 264 283 290
155 158 162 162 161 164 168 164 161 146 132 131 124 116 109 101 91 81 80 73 73 68 57 52 48 42 36 24 32 8 317 278 304 318 322 323 332 328 311 278 278 295 304
156 155 153 154 158 163 167 169 159 137 136 130 124 117 109 102 98 92 84 79 71 62 52 47 42 41 41 35 32 11 8 360 3 304 323 322 326 330 334 302 281 293 300
159 155 151 147 146 154 163 160 152 142 136 130 126 118 114 110 101 90 81 70 62 52 47 45 36 34 25 16 19 31 32 9 344 329 309 321 311 326 330 323 272 279 298
Height
794 796 799 801 800 801 803 804 804 805 805 807 808 808 809 809 810 811 812 813 815 816 816 817 818 818 819 819 820 819 821 821 821 821 821 821 820 819 819 820 820 821 821
788 794 797 799 801 802 803 804 805 805 806 807 808 810 811 812 813 814 815 815 816 818 819 820 821 822 823 823 823 822 822 823 823 823 823 823 822 821 821 822 822 823 823
788 793 797 800 802 804 805 805 806 807 807 808 809 811 812 815 816 817 817 818 819 820 822 823 824 825 825 825 825 825 824 824 824 825 825 824 823 823 822 822 823 824 824
791 795 799 802 804 805 806 807 808 808 809 810 811 813 814 816 818 819 820 821 821 823 824 824 825 826 827 828 827 827 827 826 827 827 826 826 826 826 825 824 824 824 824
793 797 800 802 804 805 807 809 810 810 811 813 814 815 816 818 820 821 822 823 824 825 826 826 827 827 828 828 828 827 827 828 828 827 826 826 827 827 826 825 824 824 824
794 799 802 803 805 807 808 809 812 813 814 814 815 817 819 821 822 823 824 825 826 827 828 828 828 828 828 828 828 828 828 828 828 827 826 826 825 825 825 825 825 825 825
794 799 802 805 806 808 809 811 812 813 815 816 817 819 820 822 823 824 825 826 827 828 828 828 829 829 829 829 829 828 827 827 826 825 825 825 825 825 826 826 825 825 825
796 800 803 806 808 809 809 811 812 813 815 817 818 820 822 823 824 824 825 826 827 829 829 829 829 829 829 830 829 829 828 826 825 824 823 825 825 825 825 825 825 825 825
797 800 802 805 808 810 810 811 813 814 815 817 819 820 822 823 825 825 825 826 828 829 829 828 828 828 829 828 828 828 827 826 825 824 823 824 824 824 824 823 824 825 826
800 801 803 805 807 810 812 812 814 814 816 816 819 821 822 823 825 825 825 827 827 828 828 827 828 828 828 828 827 826 827 825 824 824 824 822 821 820 821 822 821 822 823
800 802 803 804 805 808 810 812 813 815 816 818 818 821 822 824 825 825 826 827 828 828 828 828 827 828 828 826 826 826 825 825 824 822 822 822 820 819 820 819 819 818 819
797 800 801 802 804 805 808 811 812 814 815 817 818 820 822 824 825 826 827 827 828 828 828 827 827 827 827 825 824 824 823 823 822 821 820 818 818 818 817 815 816 817 817
787 793 796 800 802 804 805 808 811 813 814 815 818 820 822 823 825 826 826 827 827 827 827 826 826 826 826 824 823 822 821 821 820 818 818 817 817 815 815 817 817 815 816
788 791 793 797 800 802 804 806 807 810 812 814 817 819 821 822 823 824 825 826 826 826 826 825 824 824 823 822 821 820 819 819 817 816 815 814 813 812 813 814 815 815 815
785 789 791 795 797 800 804 806 807 809 811 813 816 819 820 820 821 822 824 824 824 823 823 823 822 822 821 820 818 817 816 817 815 814 813 813 811 810 810 811 811 812 813
783 786 790 793 795 798 802 804 807 809 811 813 816 817 818 819 820 821 821 821 821 821 820 819 820 821 819 818 815 813 813 814 813 811 810 811 809 807 806 805 806 807 810
780 784 788 793 794 795 799 804 807 809 811 813 815 816 817 816 818 818 819 820 821 821 819 818 818 818 818 816 814 813 812 811 809 809 809 808 805 804 802 801 802 804 804
777 781 784 789 792 793 799 803 807 809 809 812 813 814 814 815 815 817 817 819 821 820 819 816 816 816 816 816 813 812 810 809 808 807 806 804 802 800 799 800 801 803 801
770 777 781 786 789 793 799 804 808 809 811 811 811 812 813 814 814 816 816 818 819 818 817 816 815 815 814 814 813 811 807 806 805 804 802 801 800 799 798 798 798 797 795
767 772 777 781 785 790 797 803 806 808 808 809 809 810 810 811 812 813 815 816 816 817 815 815 814 813 813 811 811 809 806 803 802 800 800 799 799 797 794 793 794 792 790
763 766 770 778 783 788 793 800 804 805 808 808 807 809 810 810 810 813 815 817 816 813 814 813 812 814 811 809 808 807 803 800 800 800 799 799 797 795 791 788 788 787 785
764 767 771 774 780 785 791 795 799 803 809 807 808 809 809 809 811 813 815 816 815 818 814 813 814 811 812 811 810 810 807 802 800 799 796 795 793 792 788 784 782 783 782
765 769 773 776 779 784 788 791 795 801 806 808 808 811 811 812 813 816 815 816 814 816 816 815 812 811 811 811 811 813 810 808 803 796 792 791 790 788 785 781 780 778 776
768 770 774 777 779 782 786 790 795 794 801 807 809 811 812 814 815 816 816 816 816 817 816 814 813 812 812 812 813 812 811 810 805 798 795 789 786 783 780 779 777 773 770
767 770 773 776 779 781 785 789 793 796 801 806 810 811 814 815 816 817 818 819 818 818 817 816 816 815 816 815 814 813 811 808 807 805 797 791 783 779 777 775 774 771 768
767 768 770 773 778 781 785 787 790 794 801 806 810 811 812 817 818 819 820 820 820 819 819 819 819 817 816 815 814 814 814 813 810 807 802 795 788 778 773 771 769 767 764